Regional Weather Roundup
Issued by NWS Sioux Falls, SD

Home | Current Version | Previous Version | Graphics & Text | Print | Product List | Glossary On
Versions: 1 2 3 4 5 6 7 8 9 10 11 12 13 14 15 16 17 18 19 20 21 22 23 24 25 26 27 28 29 30 31 32 33 34 35 36 37 38 39 40 41 42 43 44 45 46 47 48 49 50
000
ASUS43 KFSD 021910
RWRFSD

WEATHER ROUNDUP FOR SE SOUTH DAKOTA/SW MINNESOTA/NW IOWA
NATIONAL WEATHER SERVICE SIOUX FALLS SD
100 PM CST FRI DEC 02 2016

NOTE: "FAIR" INDICATES FEW OR NO CLOUDS BELOW 12,000 FEET WITH NO
SIGNIFICANT WEATHER AND OR OBSTRUCTIONS TO VISIBILITY.


SDZ038>040-050-052>070-022000-
SOUTHEAST SOUTH DAKOTA

CITY           SKY/WX    TMP DP  RH WIND       PRES   REMARKS
BROOKINGS      CLOUDY    29  22  75 W10       30.23S WCI  20
CHAMBERLAIN    CLOUDY    33  30  91 E3        30.27R
HURON          CLOUDY    31  24  75 NE5       30.28S WCI  26
MADISON        CLOUDY    28  28 100 NW13      30.25S WCI  18
MITCHELL       CLOUDY    32  28  85 N8        30.29S WCI  25
SIOUX FALLS    CLOUDY    34  27  75 NW8       30.25F WCI  27
WINNER         MOCLDY    34  25  69 CALM      30.26R
YANKTON        CLOUDY    36  25  64 W6        30.27F
$$

MNZ071-072-080-081-089-090-097-098-022000-
SOUTHWEST MINNESOTA

CITY           SKY/WX    TMP DP  RH WIND       PRES   REMARKS
FAIRMONT       CLOUDY    31  25  78 NW13      30.26R WCI  21
JACKSON        CLOUDY    30  23  74 NW10      30.25S WCI  21
LUVERNE        CLOUDY    32  23  69 NW8       30.26S WCI  25
MARSHALL       FLURRIES  30  24  78 N12       30.26F WCI  20
MONTEVIDEO     CLOUDY    28  25  86 N9        30.28F WCI  20
PIPESTONE      CLOUDY    30  25  80 NW8       30.23S WCI  23
REDWOOD FALLS  CLOUDY    30  20  66 NW6       30.26F WCI  24
TRACY          CLOUDY    31  25  81 NW6       30.26S WCI  25
WINDOM         CLOUDY    28  23  80 NW10      30.25S WCI  19
WORTHINGTON    CLOUDY    31  23  72 NW15      30.25S WCI  20
$$

IAZ001>003-012>014-020>022-031-032-NEZ013-014-SDZ071-022000-
NORTHWEST IOWA

CITY           SKY/WX    TMP DP  RH WIND       PRES   REMARKS
CHEROKEE       CLOUDY    35  28  76 N7        30.26S WCI  29
DENISON        CLOUDY    37  32  81 NW6       30.24S
ESTHERVILLE    CLOUDY    31  25  78 NW10      30.25S WCI  22
LE MARS        CLOUDY    36  30  80 N7        30.28S
ORANGE CITY    CLOUDY    34  30  86 CALM      30.26S
SHELDON        CLOUDY    34  28  80 NW6       30.24F WCI  29
SIOUX CITY     CLOUDY    39  30  70 NW7       30.28S
SPENCER        CLOUDY    34  25  69 NW15      30.26R WCI  24
STORM LAKE       N/A     34  30  86 N7        30.24F WCI  28
$$

ABBREVIATIONS USED IN REMARKS
   TC - TEMPERATURE IN CELSIUS
  WCI - WIND CHILL INDEX
   HX - HEAT INDEX
  VSB - VISIBILITY




USA.gov is the U.S. government's official web portal to all federal, state and local government web resources and services.